Location: Newark
(26.0814°N, 97.8289°W)
Time: 05:15:54
(UTC+00:00)

Hubble Space Telescope - Visible Passes

Search period start: 28 January 2020 00:00
Search period end: 07 February 2020 00:00
Orbit: 536 x 540 km, 28.5° (Epoch: 26 January)

Date Brightness Start Highest point End Pass type
(mag) Time Alt. Az. Time Alt. Az. Time Alt. Az.
28 Jan 2.1 12:14:46 10° SW 12:18:35 37° SSE 12:22:24 10° E visible
29 Jan 1.6 12:05:01 17° SW 12:07:56 47° SSE 12:11:53 10° E visible
30 Jan 1.1 11:55:28 30° SW 11:57:17 58° SSE 12:01:21 10° E visible
31 Jan 0.8 11:45:47 51° SW 11:46:40 71° SSE 11:50:46 10° E visible
01 Feb 0.6 11:35:59 84° SSW 11:36:03 85° S 11:40:11 10° ENE visible
02 Feb 1.1 11:26:07 61° ENE 11:26:07 61° ENE 11:29:35 10° ENE visible
03 Feb 1.9 11:16:11 41° ENE 11:16:11 41° ENE 11:19:00 10° ENE visible
03 Feb 1.0 12:52:09 10° WNW 12:56:14 62° N 13:00:19 10° E visible
04 Feb 2.5 11:06:13 30° ENE 11:06:13 30° ENE 11:08:24 10° ENE visible
04 Feb 0.9 12:41:34 10° WNW 12:45:39 66° N 12:49:45 10° E visible
05 Feb 3.1 10:56:12 22° ENE 10:56:12 22° ENE 10:57:49 10° ENE visible
05 Feb 0.8 12:31:32 14° WNW 12:35:05 72° N 12:39:12 10° E visible
06 Feb 3.5 10:46:12 17° ENE 10:46:12 17° ENE 10:47:14 10° E visible
06 Feb 0.7 12:21:32 18° WNW 12:24:30 81° N 12:28:37 10° E visible
